DW2781 Weather Reports


time (UTC)temp
C
wind
direction
speed
KPH
gust
KPH
rain 1hr
cm
rain 24hr
cm
rain mn
cm
humidity
%
barometer
mb
20260506015005 10 22 17.7 27.4 0.00 0.00 0.00 80 1011.5
20260506014525 10 24 16.1 27.4 0.00 0.00 0.00 80 1011.4
20260506014005 10 23 17.7 27.4 0.00 0.00 0.00 80 1011.3
20260506013504 10 25 14.5 27.4 0.00 0.00 0.00 80 1011.2
20260506013004 10 33 11.3 27.4 0.00 0.00 0.00 79 1011.1
20260506012505 10 29 11.3 27.4 0.00 0.00 0.00 79 1011.2
20260506012026 10 24 14.5 29.0 0.00 0.00 0.00 79 1011.2
20260506011505 10 23 16.1 29.0 0.00 0.00 0.00 79 1011.1
20260506011004 10 26 14.5 27.4 0.00 0.00 0.00 79 1010.9
20260506010526 10 23 17.7 29.0 0.00 0.00 0.00 79 1010.9
20260506010005 10 23 16.1 29.0 0.00 0.00 0.00 78 1010.8
20260506005526 10 26 17.7 32.2 0.00 0.00 0.00 78 1010.7
20260506005004 10 27 19.3 32.2 0.00 0.00 0.00 78 1010.4
20260506004505 10 32 11.3 30.6 0.00 0.00 0.00 78 1010.2
20260506004005 10 30 11.3 24.1 0.00 0.00 0.00 78 1010.0
20260506003526 10 28 14.5 27.4 0.00 0.00 0.00 78 1009.9
20260506003005 10 24 17.7 32.2 0.00 0.00 0.00 78 1009.9
20260506002526 10 21 22.5 35.4 0.00 0.00 0.00 77 1009.9
20260506002005 10 21 20.9 35.4 0.00 0.00 0.00 77 1009.9
20260506001526 11 26 16.1 35.4 0.00 0.00 0.00 76 1009.8
20260506001005 11 29 16.1 29.0 0.00 0.00 0.00 76 1009.7
20260506000505 11 25 17.7 33.8 0.00 0.00 0.00 76 1010.0
20260506000004 11 25 16.1 33.8 0.00 0.00 0.00 76 1009.8
20260505235505 11 25 16.1 29.0 0.00 0.00 0.00 76 1009.7
20260505235005 11 22 19.3 29.0 0.00 0.00 0.00 75 1009.6
20260505234505 11 22 19.3 29.0 0.00 0.00 0.00 75 1009.5
20260505234026 11 23 17.7 25.7 0.00 0.00 0.00 75 1009.5
20260505233505 11 24 16.1 24.1 0.00 0.00 0.00 74 1009.9
20260505233004 11 27 16.1 33.8 0.00 0.00 0.00 74 1010.0
20260505232505 11 23 19.3 33.8 0.00 0.00 0.00 74 1010.2
20260505232004 11 20 20.9 35.4 0.00 0.00 0.00 73 1010.1
20260505231505 11 22 19.3 35.4 0.00 0.00 0.00 73 1010.1
20260505231025 11 20 20.9 32.2 0.00 0.00 0.00 73 1009.9
20260505230504 11 20 19.3 32.2 0.00 0.00 0.00 73 1009.6
20260505230005 11 23 20.9 32.2 0.00 0.00 0.00 73 1009.5
20260505225505 11 22 20.9 32.2 0.00 0.00 0.00 72 1009.4
20260505225005 11 21 19.3 30.6 0.00 0.00 0.00 72 1009.5
20260505224526 11 22 17.7 29.0 0.00 0.00 0.00 72 1009.5
20260505224004 12 29 17.7 30.6 0.00 0.00 0.00 72 1009.5
20260505223526 12 29 17.7 30.6 0.00 0.00 0.00 73 1009.3
20260505223004 12 28 14.5 29.0 0.00 0.00 0.00 73 1009.5
20260505222504 12 34 16.1 35.4 0.00 0.00 0.00 72 1009.3
20260505222005 12 30 19.3 35.4 0.00 0.00 0.00 72 1009.3
20260505221504 12 26 17.7 32.2 0.00 0.00 0.00 72 1009.0
20260505221025 12 29 16.1 33.8 0.00 0.00 0.00 72 1009.0
20260505220505 12 30 17.7 33.8 0.00 0.00 0.00 72 1008.8
20260505220004 12 30 19.3 30.6 0.00 0.00 0.00 72 1009.0
20260505215505 12 28 17.7 30.6 0.00 0.00 0.00 71 1009.0
20260505215004 12 26 17.7 35.4 0.00 0.00 0.00 71 1008.9
20260505214505 12 30 20.9 37.0 0.00 0.00 0.00 71 1008.5
20260505214005 12 29 20.9 37.0 0.00 0.00 0.00 71 1008.2
20260505213504 12 27 20.9 35.4 0.00 0.00 0.00 71 1008.2
20260505213004 12 25 20.9 35.4 0.00 0.00 0.00 71 1008.2
20260505212505 12 20 24.1 38.6 0.00 0.00 0.00 72 1008.4
20260505212004 12 20 24.1 38.6 0.00 0.00 0.00 71 1008.4
20260505211505 12 23 20.9 35.4 0.00 0.00 0.00 72 1008.7
20260505211004 12 32 20.9 40.2 0.00 0.00 0.00 72 1008.1
20260505210505 12 31 22.5 40.2 0.00 0.00 0.00 72 1008.1
20260505210004 12 27 24.1 38.6 0.00 0.00 0.00 73 1008.0
20260505205505 12 22 24.1 37.0 0.00 0.00 0.00 73 1007.9
20260505205004 12 19 22.5 37.0 0.00 0.00 0.00 73 1008.3
20260505204504 12 24 17.7 37.0 0.00 0.00 0.00 73 1049.6
20260505204005 12 25 16.1 32.2 0.00 0.00 0.00 73 1009.4
20260505203505 12 25 20.9 37.0 0.00 0.00 0.00 72 1009.0
20260505203026 12 26 22.5 37.0 0.00 0.00 0.00 73 1008.6
20260505202505 12 24 24.1 40.2 0.00 0.00 0.00 73 1008.2
20260505202005 13 21 24.1 40.2 0.00 0.00 0.00 73 1008.3
20260505201505 13 19 24.1 38.6 0.00 0.00 0.00 73 1008.0
20260505201026 13 20 24.1 37.0 0.00 0.00 0.00 73 1008.0
20260505200526 13 22 25.7 35.4 0.00 0.00 0.00 74 1007.9
20260505200005 13 22 22.5 35.4 0.00 0.00 0.00 74 1008.1
20260505195505 13 19 24.1 41.8 0.00 0.00 0.00 75 1008.1
20260505195004 12 17 25.7 41.8 0.00 0.00 0.00 74 1007.9
20260505194504 12 16 24.1 40.2 0.00 0.00 0.00 74 1008.1
20260505194005 13 22 22.5 35.4 0.00 0.00 0.00 75 1008.1
20260505193504 12 21 22.5 33.8 0.00 0.00 0.00 76 1008.0
20260505193004 12 16 22.5 33.8 0.00 0.00 0.00 76 1007.9
20260505192504 12 14 22.5 41.8 0.00 0.00 0.00 76 1008.0
20260505192004 12 12 24.1 41.8 0.00 0.00 0.00 76 1008.0
20260505191504 12 12 24.1 40.2 0.00 0.00 0.00 77 1007.8
20260505191004 12 12 22.5 37.0 0.00 0.00 0.00 77 1007.7
20260505190504 12 17 22.5 37.0 0.00 0.00 0.00 77 1007.7
20260505190004 13 17 20.9 32.2 0.00 0.00 0.00 77 1007.9
20260505185504 13 15 20.9 32.2 0.00 0.00 0.00 77 1007.9
20260505185004 13 18 20.9 32.2 0.00 0.00 0.00 76 1007.7
20260505184504 13 22 19.3 30.6 0.00 0.00 0.00 77 1007.6
20260505184004 13 24 19.3 32.2 0.00 0.00 0.00 77 1007.5
20260505183504 13 21 22.5 35.4 0.00 0.00 0.00 77 1007.5
20260505183004 13 19 25.7 38.6 0.00 0.00 0.00 76 1007.6
20260505182504 13 17 24.1 38.6 0.00 0.00 0.00 76 1007.5
20260505182004 14 21 22.5 35.4 0.00 0.00 0.00 76 1007.4
20260505181505 14 27 22.5 37.0 0.00 0.00 0.00 76 1007.4
20260505181004 14 24 24.1 37.0 0.00 0.00 0.00 76 1007.1
20260505180504 14 27 20.9 37.0 0.00 0.00 0.00 76 1007.0
20260505180004 14 34 17.7 32.2 0.00 0.00 0.00 77 1007.0
20260505175504 14 38 17.7 32.2 0.00 0.00 0.00 77 1007.0
20260505175025 14 32 19.3 35.4 0.00 0.00 0.00 77 1006.9
20260505174504 14 26 22.5 35.4 0.00 0.00 0.00 77 1006.7
20260505174004 14 28 20.9 35.4 0.00 0.00 0.00 78 1006.7
20260505173504 14 28 19.3 35.4 0.00 0.00 0.00 78 1006.6
20260505173025 14 30 19.3 35.4 0.00 0.00 0.00 78 1006.5
20260505172505 13 31 19.3 35.4 0.00 0.00 0.00 78 1006.5
20260505172004 13 22 22.5 38.6 0.00 0.00 0.00 79 1006.6
20260505171505 13 19 25.7 38.6 0.00 0.00 0.00 78 1006.4
20260505171005 14 20 24.1 38.6 0.00 0.00 0.00 79 1006.2
20260505170504 13 23 24.1 38.6 0.00 0.00 0.00 79 1006.1
20260505170004 13 23 27.4 41.8 0.00 0.00 0.00 79 1006.1
20260505165504 14 25 22.5 41.8 0.00 0.00 0.00 79 1006.0
20260505165025 14 28 20.9 37.0 0.00 0.00 0.00 80 1006.0
20260505164505 13 25 24.1 41.8 0.00 0.00 0.00 80 1005.9
20260505164025 14 24 22.5 41.8 0.00 0.00 0.00 80 1005.8
20260505163504 14 21 27.4 45.1 0.00 0.00 0.00 81 1005.5
20260505163026 14 20 30.6 45.1 0.00 0.00 0.00 80 1005.4
20260505162525 14 22 25.7 43.5 0.00 0.00 0.00 80 1005.3
20260505162025 14 24 22.5 37.0 0.00 0.00 0.00 81 1005.1
20260505161505 14 21 25.7 43.5 0.00 0.00 0.00 80 1004.8
20260505161004 14 18 29.0 45.1 0.00 0.00 0.00 80 1004.7
20260505160504 14 15 29.0 45.1 0.00 0.00 0.00 80 1004.5
20260505153004 16 19 27.4 45.1 0.00 0.00 0.00 80 1003.7
20260505152504 16 19 25.7 37.0 0.00 0.00 0.00 80 1003.5
20260505152004 17 21 27.4 45.1 0.00 0.00 0.00 79 1003.3
20260505151504 17 20 27.4 45.1 0.00 0.00 0.00 78 1003.2
20260505151004 17 16 25.7 38.6 0.00 0.00 0.00 77 1003.0
20260505150504 18 8 24.1 40.2 0.00 0.00 0.00 77 1002.8
20260505140504 21 91 8.0 17.7 0.00 0.00 0.00 81 1001.2
20260505125004 20 78 1.6 8.0 0.00 0.00 0.00 79 1001.0
20260505124526 21 72 0.0 3.2 0.00 0.00 0.00 79 1000.9
20260505124004 21 67 1.6 6.4 0.00 0.00 0.00 78 1000.7
20260505123504 21 64 1.6 6.4 0.00 0.00 0.00 78 1000.8
20260505123025 21 65 0.0 6.4 0.00 0.00 0.00 77 1000.8
20260505122505 21 0 0.0 0.0 0.00 0.00 0.00 76 1000.7
20260505122004 21 0 0.0 0.0 0.00 0.00 0.00 76 1000.6
20260505121504 21 0 0.0 0.0 0.00 0.00 0.00 75 1000.5
20260505121004 21 0 0.0 0.0 0.00 0.00 0.00 75 1000.3
20260505120504 21 6 0.0 3.2 0.00 0.00 0.00 75 1000.4
20260505120005 21 335 1.6 8.0 0.00 0.00 0.00 75 1000.2
20260505115504 21 316 3.2 11.3 0.00 0.00 0.00 75 1000.3
20260505115004 21 315 4.8 11.3 0.00 0.00 0.00 75 1000.3
20260505114504 21 322 3.2 11.3 0.00 0.00 0.00 74 1000.2
20260505114004 21 328 1.6 12.9 0.00 0.00 0.00 74 999.9
20260505113504 21 324 4.8 16.1 0.00 0.00 0.00 74 999.7
20260505113005 21 223 9.7 22.5 0.00 0.00 0.00 74 999.6
20260505112504 21 191 6.4 22.5 0.00 0.00 0.00 74 999.1
20260505112004 22 203 1.6 11.3 0.00 0.00 0.00 73 999.0
20260505111525 22 213 1.6 8.0 0.00 0.00 0.00 74 999.1
20260505111004 22 220 4.8 20.9 0.00 0.00 0.00 74 999.0
20260505110525 22 215 6.4 20.9 0.00 0.00 0.00 74 999.0
20260505102025 22 195 16.1 35.4 0.00 0.00 0.00 74 998.1
20260505101504 22 195 14.5 35.4 0.00 0.00 0.00 74 998.1
20260505101004 22 191 16.1 32.2 0.00 0.00 0.00 74 998.0
20260505100504 22 192 17.7 32.2 0.00 0.00 0.00 74 998.1
20260505100025 22 191 16.1 30.6 0.00 0.00 0.00 74 997.9
20260505095504 22 193 16.1 30.6 0.00 0.00 0.00 74 997.8
20260505095004 22 191 14.5 27.4 0.00 0.00 0.00 74 997.9
20260505094504 22 192 12.9 30.6 0.00 0.00 0.00 74 997.9
20260505094004 22 192 14.5 37.0 0.00 0.00 0.00 74 998.0
20260505093503 22 187 16.1 37.0 0.00 0.00 0.00 74 998.0
20260505093004 22 187 16.1 35.4 0.00 0.00 0.00 74 998.0
20260505092503 22 191 14.5 35.4 0.00 0.00 0.00 74 997.8
20260505092024 22 190 16.1 29.0 0.00 0.00 0.00 74 997.8
20260505091503 22 186 17.7 30.6 0.00 0.00 0.00 74 997.8
20260505091004 22 193 0.0 37.0 0.00 0.00 0.00 74 997.9
20260505090503 22 192 17.7 37.0 0.00 0.00 0.00 74 998.1
20260505090025 22 187 17.7 37.0 0.00 0.00 0.00 74 998.0
20260505085504 22 189 19.3 37.0 0.00 0.00 0.00 74 998.2
20260505085004 22 191 16.1 32.2 0.00 0.00 0.00 74 998.2
20260505084504 22 189 16.1 32.2 0.00 0.00 0.00 74 998.3
20260505084004 22 188 17.7 32.2 0.00 0.00 0.00 74 998.2
20260505083503 22 189 19.3 38.6 0.00 0.00 0.00 74 998.2
20260505083004 22 187 20.9 38.6 0.00 0.00 0.00 74 998.4
20260505082524 22 186 19.3 38.6 0.00 0.00 0.00 74 998.4
20260505082004 22 188 17.7 38.6 0.00 0.00 0.00 74 998.5
20260505081504 22 190 17.7 30.6 0.00 0.00 0.00 74 998.6
20260505081025 22 188 19.3 37.0 0.00 0.00 0.00 74 998.6
20260505080503 22 189 20.9 37.0 0.00 0.00 0.00 74 998.5
20260505080024 22 191 19.3 40.2 0.00 0.00 0.00 74 998.5
20260505075504 22 190 19.3 40.2 0.00 0.00 0.00 74 998.6
20260505075004 22 190 20.9 38.6 0.00 0.00 0.00 74 998.6
20260505074503 22 189 19.3 38.6 0.00 0.00 0.00 74 998.8
20260505074004 22 189 17.7 35.4 0.00 0.00 0.00 74 998.7
20260505073504 22 186 19.3 46.7 0.00 0.00 0.00 74 998.8
20260505073025 22 185 20.9 46.7 0.00 0.00 0.00 74 999.0
20260505072504 22 189 17.7 41.8 0.00 0.00 0.00 74 998.9
20260505072004 22 190 17.7 41.8 0.00 0.00 0.00 74 999.1
20260505071504 22 191 17.7 40.2 0.00 0.00 0.00 74 999.1
20260505071004 22 191 17.7 40.2 0.00 0.00 0.00 74 999.2
20260505070504 22 187 17.7 35.4 0.00 0.00 0.00 73 999.2
20260505070025 22 188 16.1 35.4 0.00 0.00 0.00 73 999.3
20260505065504 22 189 16.1 41.8 0.00 0.00 0.00 73 999.4
20260505065003 22 185 17.7 41.8 0.00 0.00 0.00 73 999.4
20260505064504 22 183 19.3 41.8 0.00 0.00 0.00 73 999.4
20260505064004 22 184 20.9 41.8 0.00 0.00 0.00 73 999.4
20260505063504 22 184 20.9 37.0 0.00 0.00 0.00 73 999.6
20260505063025 22 182 19.3 40.2 0.00 0.00 0.00 73 999.5
20260505062504 22 181 19.3 40.2 0.00 0.00 0.00 73 999.5
20260505062025 22 180 19.3 37.0 0.00 0.00 0.00 73 999.7
20260505061504 22 181 19.3 37.0 0.00 0.00 0.00 72 999.7
20260505061004 22 182 19.3 41.8 0.00 0.00 0.00 72 999.6
20260505060503 22 180 17.7 41.8 0.00 0.00 0.00 72 999.8
20260505060004 22 181 17.7 35.4 0.00 0.00 0.00 72 999.9
20260505055504 22 180 19.3 37.0 0.00 0.00 0.00 72 1000.0
20260505055004 22 180 19.3 37.0 0.00 0.00 0.00 72 1000.0
20260505054504 22 182 19.3 40.2 0.00 0.00 0.00 72 1000.0
20260505054003 22 183 20.9 40.2 0.00 0.00 0.00 72 1000.0
20260505053503 22 183 19.3 40.2 0.00 0.00 0.00 72 1000.0
20260505053003 23 184 20.9 40.2 0.00 0.00 0.00 71 1000.0
20260505052504 23 183 22.5 45.1 0.00 0.00 0.00 71 1000.1
20260505052003 23 179 22.5 45.1 0.00 0.00 0.00 71 1000.1
20260505051504 23 176 24.1 46.7 0.00 0.00 0.00 71 1000.1
20260505051003 23 178 22.5 46.7 0.00 0.00 0.00 71 1000.1
20260505050504 23 181 20.9 38.6 0.00 0.00 0.00 71 1000.3
20260505041504 23 175 20.9 38.6 0.00 0.00 0.00 70 1000.7
20260505041004 23 175 19.3 38.6 0.00 0.00 0.00 70 1000.7
20260505040504 23 176 17.7 35.4 0.00 0.00 0.00 69 1000.8
20260505040005 23 176 19.3 40.2 0.00 0.00 0.00 69 1000.8
20260505035503 23 176 20.9 40.2 0.00 0.00 0.00 69 1000.8
20260505035004 23 179 19.3 38.6 0.00 0.00 0.00 69 1000.9
20260505034504 23 179 19.3 38.6 0.00 0.00 0.00 69 1000.8
20260505034004 23 174 20.9 40.2 0.00 0.00 0.00 69 1000.7
20260505033504 23 171 20.9 40.2 0.00 0.00 0.00 68 1000.7
20260505033003 23 171 20.9 45.1 0.00 0.00 0.00 68 1000.9
20260505032525 24 173 20.9 45.1 0.00 0.00 0.00 68 1000.6
20260505032025 24 173 22.5 48.3 0.00 0.00 0.00 68 1000.6
20260505031504 24 170 22.5 48.3 0.00 0.00 0.00 67 1000.6
20260505031004 24 169 19.3 35.4 0.00 0.00 0.00 67 1000.5
20260505030504 24 170 20.9 35.4 0.00 0.00 0.00 67 1000.4
20260505030004 24 171 20.9 45.1 0.00 0.00 0.00 67 1000.5
20260505025504 24 172 24.1 46.7 0.00 0.00 0.00 67 1000.5
20260505025025 24 173 22.5 46.7 0.00 0.00 0.00 66 1000.3
20260505024525 24 172 20.9 40.2 0.00 0.00 0.00 66 1000.1
20260505024004 24 172 22.5 45.1 0.00 0.00 0.00 66 999.9
20260505023504 24 172 24.1 45.1 0.00 0.00 0.00 65 1000.2
20260505023004 25 169 22.5 43.5 0.00 0.00 0.00 65 1000.3
20260505022504 25 167 20.9 43.5 0.00 0.00 0.00 65 1000.1
20260505022004 25 168 22.5 43.5 0.00 0.00 0.00 65 1000.1
20260505021504 25 169 25.7 48.3 0.00 0.00 0.00 64 999.9
20260505021004 25 167 24.1 48.3 0.00 0.00 0.00 64 999.8
20260505020504 25 166 22.5 48.3 0.00 0.00 0.00 63 999.9
20260505020004 25 170 24.1 48.3 0.00 0.00 0.00 63 999.9
20260505015504 25 168 24.1 48.3 0.00 0.00 0.00 63 1000.0